New Castle, PA

3:34 PM EDT on May 26, 2017 (GMT -0400)
New Castle Municipal

Weather History for KUCP - December, 2012

Change the Weather History Date:

Sunday, December 9, 2012

  Actual Average Record
Temperature  
Mean Temperature 44 °F -  
Max Temperature 53 °F 41 °F 66 °F (1952)
Min Temperature 36 °F 27 °F 5 °F (1977)
Degree Days  
Heating Degree Days 20    
Moisture  
Dew Point 42 °F    
Average Humidity 89    
Maximum Humidity 100    
Minimum Humidity 76    
Precipitation  
Precipitation 0.10 in - - ()
Sea Level Pressure  
Sea Level Pressure 29.98 in    
Wind  
Wind Speed 7 mph (ESE)    
Max Wind Speed 10 mph    
Max Gust Speed -    
Visibility 8 miles    
Events Rain    
Averages and records for this station are not official NWS values.
T = Trace of Precipitation, MM = Missing Value Source: NWS Daily Summary

Daily Weather History Graph

Daily Weather History Graph

Search for Another Location

Airport or City:

Trip Planner

Search our weather history database for the weather conditions in past years. The results will help you decide how hot, cold, wet, or windy it might be!

Date:

Astronomy

Dec. 09, 2012 Rise Set
Actual Time 7:35 AM EST 4:53 PM EST
Civil Twilight 7:04 AM EST 5:24 PM EST
Nautical Twilight 6:29 AM EST 5:58 PM EST
Astronomical Twilight 5:56 AM EST 6:32 PM EST
Moon 3:04 AM EST (12/9) 2:00 PM EST (12/9)
Length of Visible Light 10h 19m
Length of Day
9h 17m
Waning Crescent, 19% of the Moon is Illuminated
Dec 9
Waning Crescent
Dec 13
New
Dec 20
First Quarter
Dec 28
Full
Jan 4
Last Quarter

Hourly Weather History & Observations

Time (EST) Temp. Windchill Dew Point Humidity Pressure Visibility Wind Dir Wind Speed Gust Speed Precip Events Conditions
12:56 AM 36.9 °F 30.1 °F 32.9 °F 86% 30.18 in 10.0 mi NNE 9.2 mph - N/A   Overcast
2:09 AM 37.4 °F 32.8 °F 32.0 °F 81% 30.14 in 10.0 mi NNE 5.8 mph - N/A   Overcast
2:56 AM 36.9 °F 32.2 °F 32.0 °F 83% 30.22 in 10.0 mi NNE 5.8 mph - N/A   Overcast
3:56 AM 36.9 °F 32.2 °F 32.0 °F 83% 30.22 in 10.0 mi NE 5.8 mph - N/A   Overcast
4:56 AM 36.0 °F - 31.1 °F 82% 30.22 in 10.0 mi Calm Calm - N/A   Mostly Cloudy
5:56 AM 36.0 °F 32.1 °F 31.1 °F 82% 30.22 in 10.0 mi NE 4.6 mph - N/A   Mostly Cloudy
6:56 AM 36.0 °F 29.6 °F 31.1 °F 82% 30.20 in 10.0 mi NE 8.1 mph - N/A   Overcast
7:56 AM 36.9 °F 31.4 °F 31.1 °F 80% 30.22 in 10.0 mi ENE 6.9 mph - N/A   Overcast
9:56 AM 38.8 °F 34.6 °F 32.0 °F 76% 30.19 in 10.0 mi East 5.8 mph - N/A   Overcast
10:56 AM 41.0 °F 35.8 °F 34.0 °F 76% 30.16 in 10.0 mi East 8.1 mph - N/A   Overcast
11:56 AM 41.9 °F 35.9 °F 34.9 °F 76% 30.12 in 10.0 mi East 10.4 mph - N/A   Overcast
12:56 PM 43.9 °F 39.9 °F 36.9 °F 76% 30.07 in 10.0 mi ESE 6.9 mph - N/A   Overcast
1:56 PM 43.9 °F 40.5 °F 37.9 °F 80% 30.04 in 10.0 mi ESE 5.8 mph - N/A   Overcast
2:56 PM 45.9 °F 42.3 °F 39.9 °F 80% 30.02 in 10.0 mi East 6.9 mph - N/A   Overcast
3:56 PM 43.9 °F - 41.9 °F 93% 30.00 in 5.0 mi Calm Calm - 0.04 in Rain Light Rain
4:56 PM 45.0 °F 40.6 °F 43.0 °F 93% 29.96 in 7.0 mi ESE 8.1 mph - 0.02 in Rain Light Rain
5:29 PM 46.4 °F 44.3 °F 44.6 °F 93% 29.88 in 5.0 mi SE 4.6 mph - 0.00 in   Overcast
5:32 PM 46.4 °F 44.3 °F 44.6 °F 93% 29.88 in 4.0 mi Variable 4.6 mph - 0.00 in   Overcast
5:56 PM 46.9 °F - 45.9 °F 96% 29.94 in 3.0 mi SSE 4.6 mph - 0.01 in Rain Light Rain
6:25 PM 46.4 °F 42.4 °F 46.4 °F 100% 29.86 in 10.0 mi SSE 8.1 mph - 0.00 in   Overcast
6:56 PM 47.8 °F - 46.9 °F 97% 29.92 in 10.0 mi SSE 6.9 mph - 0.00 in   Overcast
7:11 PM 48.2 °F - 46.4 °F 93% 29.86 in 10.0 mi SSE 9.2 mph - 0.01 in   Overcast
7:19 PM 48.2 °F - 48.2 °F 100% 29.86 in 10.0 mi SSE 8.1 mph - 0.01 in   Overcast
7:56 PM 48.9 °F - 47.8 °F 96% 29.91 in 3.0 mi SSE 8.1 mph - 0.01 in   Overcast
8:56 PM 50.0 °F - 50.0 °F 100% 29.87 in 8.0 mi SSE 6.9 mph - N/A   Overcast
9:56 PM 50.9 °F - 50.9 °F 100% 29.85 in 6.0 mi SSE 8.1 mph - 0.00 in Rain Light Rain
10:33 PM 51.8 °F - 51.8 °F 100% 29.77 in 2.0 mi SSE 5.8 mph - 0.04 in Rain Rain
10:49 PM 51.8 °F - 51.8 °F 100% 29.76 in 3.0 mi South 8.1 mph - 0.06 in Rain Light Rain
11:15 PM 53.6 °F - 51.8 °F 94% 29.75 in 6.0 mi SSE 6.9 mph - 0.00 in Rain Light Rain
11:28 PM 53.6 °F - 51.8 °F 94% 29.74 in 2.5 mi SSE 8.1 mph - 0.02 in Rain Light Rain
11:36 PM 53.6 °F - 51.8 °F 94% 29.73 in 7.0 mi SSE 5.8 mph - 0.02 in   Overcast
11:43 PM 53.6 °F - 51.8 °F 94% 29.73 in 8.0 mi SSE 6.9 mph - 0.02 in   Overcast
11:56 PM 52.9 °F - 52.9 °F 100% 29.78 in 8.0 mi Variable 6.9 mph - 0.02 in   Overcast